Location: Girdwood
(60.9430°N, 149.1660°W)
Time: 14:09:38
(UTC-09:00)

Iridium 86 - Visible Passes

Search period start: 20 November 2017 00:00
Search period end: 30 November 2017 00:00
Orbit: 776 x 779 km, 86.4° (Epoch: 20 November)

Date Brightness Start Highest point End Pass type
(mag) Time Alt. Az. Time Alt. Az. Time Alt. Az.
20 Nov 7.1 17:25:46 10° SW 17:30:30 34° WNW 17:35:16 10° N visible
20 Nov 8.4 19:12:14 10° NW 19:13:00 10° NW 19:13:46 10° NW visible
21 Nov 8.1 18:36:02 10° W 18:38:49 14° NW 18:41:38 10° NNW visible
22 Nov 7.9 18:00:59 10° WSW 18:04:46 20° WNW 18:08:34 10° N visible
23 Nov 7.4 17:26:22 10° WSW 17:30:49 27° WNW 17:35:17 10° N visible
24 Nov 6.9 16:52:05 10° SW 16:56:58 39° WNW 17:01:54 10° N visible
24 Nov 8.2 18:37:27 10° WNW 18:39:18 12° NW 18:41:11 10° NNW visible
25 Nov 8.0 18:01:56 10° W 18:05:11 16° NW 18:08:26 10° NNW visible
26 Nov 7.7 17:27:05 10° WSW 17:31:09 22° WNW 17:35:15 10° N visible
27 Nov 7.2 16:52:36 10° SW 16:57:15 31° WNW 17:01:55 10° N visible
28 Nov 8.0 18:03:07 10° WNW 18:05:38 13° NW 18:08:09 10° NNW visible
29 Nov 7.8 17:27:56 10° W 17:31:32 18° WNW 17:35:10 10° NNW visible
